N8SHA Weather Reports


time (UTC)temp
C
wind
direction
speed
KPH
gust
KPH
rain 1hr
cm
rain 24hr
cm
rain mn
cm
humidity
%
barometer
mb
20260503175328 16 170 16.1 19.3 0.00 0.00 0.00 44 1010.7
20260503174823 16 161 6.4 8.0 0.00 0.00 0.00 46 1010.9
20260503174322 16 187 6.4 12.9 0.00 0.00 0.00 44 1010.8
20260503173817 16 213 4.8 19.3 0.00 0.00 0.00 44 1010.9
20260503173314 16 211 8.0 16.1 0.00 0.00 0.00 43 1011.1
20260503172810 17 191 11.3 12.9 0.00 0.00 0.00 43 1011.0
20260503172308 16 292 0.0 11.3 0.00 0.00 0.00 44 1011.1
20260503171804 15 271 8.0 16.1 0.00 0.00 0.00 44 1011.3
20260503171301 15 217 4.8 22.5 0.00 0.00 0.00 46 1011.1
20260503170758 15 170 6.4 19.3 0.00 0.00 0.00 45 1011.5
20260503170255 15 184 9.7 20.9 0.00 0.00 0.00 45 1011.3
20260503160217 13 180 14.5 20.9 0.00 0.00 0.00 46 1012.0
20260503150647 11 177 4.8 12.9 0.00 0.00 0.00 50 1012.7
20260503150143 11 177 0.0 11.3 0.00 0.00 0.00 50 1012.8
20260503140108 11 163 6.4 17.7 0.00 0.00 0.00 49 1012.8
20260503131037 9 175 9.7 17.7 0.00 0.00 0.00 54 1012.9
20260503130534 8 182 4.8 9.7 0.00 0.00 0.00 55 1013.0
20260503110425 5 189 3.2 20.9 0.00 0.00 0.00 59 1012.8
20260503090316 2 296 0.0 6.4 0.00 0.00 0.00 61 1013.7
20260503081243 3 169 0.0 8.0 0.00 0.00 0.00 60 1014.3
20260503080738 3 161 3.2 4.8 0.00 0.00 0.00 60 1014.1
20260503080236 3 166 1.6 9.7 0.00 0.00 0.00 60 1014.2
20260503072713 3 189 3.2 4.8 0.00 0.00 0.00 60 1014.4
20260503072209 3 150 3.2 8.0 0.00 0.00 0.00 59 1014.3
20260503071706 3 201 4.8 8.0 0.00 0.00 0.00 59 1014.4
20260503071203 3 155 0.0 6.4 0.00 0.00 0.00 60 1014.3
20260503070659 3 152 4.8 4.8 0.00 0.00 0.00 59 1014.4
20260503070158 3 162 3.2 9.7 0.00 0.00 0.00 59 1014.5
20260503060122 3 137 3.2 4.8 0.00 0.00 0.00 60 1014.9
20260503055114 3 152 3.2 6.4 0.00 0.00 0.00 61 1015.0
20260503054609 3 128 1.6 4.8 0.00 0.00 0.00 60 1014.9
20260503054106 3 181 3.2 8.0 0.00 0.00 0.00 59 1015.3
20260503053604 3 200 0.0 4.8 0.00 0.00 0.00 60 1015.0
20260503053102 3 157 3.2 4.8 0.00 0.00 0.00 60 1015.1
20260503052559 3 181 3.2 9.7 0.00 0.00 0.00 60 1015.1
20260503052055 3 136 3.2 4.8 0.00 0.00 0.00 60 1015.1
20260503051550 3 122 1.6 9.7 0.00 0.00 0.00 60 1015.3
20260503051049 3 167 4.8 11.3 0.00 0.00 0.00 60 1015.2
20260503050544 3 176 0.0 8.0 0.00 0.00 0.00 60 1015.2
20260503050042 3 179 3.2 6.4 0.00 0.00 0.00 61 1015.2
20260503045539 4 148 3.2 9.7 0.00 0.00 0.00 60 1015.2
20260503045036 3 148 4.8 6.4 0.00 0.00 0.00 61 1015.4
20260503044532 3 166 3.2 9.7 0.00 0.00 0.00 61 1015.3
20260503044030 3 161 3.2 8.0 0.00 0.00 0.00 61 1015.2
20260503043526 3 165 3.2 8.0 0.00 0.00 0.00 62 1015.3
20260503043023 3 180 3.2 4.8 0.00 0.00 0.00 62 1015.1
20260503042520 4 194 3.2 8.0 0.00 0.00 0.00 62 1015.1
20260503042016 3 157 3.2 6.4 0.00 0.00 0.00 62 1015.2
20260503041513 4 192 3.2 4.8 0.00 0.00 0.00 62 1015.3
20260503041011 4 180 4.8 6.4 0.00 0.00 0.00 62 1015.5
20260503040508 4 156 3.2 6.4 0.00 0.00 0.00 62 1015.1
20260503040005 4 151 1.6 8.0 0.00 0.00 0.00 62 1015.2
20260503035502 4 145 1.6 9.7 0.00 0.00 0.00 63 1015.3
20260503035000 4 157 1.6 6.4 0.00 0.00 0.00 63 1015.4
20260503034456 4 180 1.6 4.8 0.00 0.00 0.00 63 1015.4
20260503033953 4 139 4.8 9.7 0.00 0.00 0.00 63 1015.5
20260503033450 4 118 0.0 6.4 0.00 0.00 0.00 63 1015.5
20260503032949 4 154 0.0 6.4 0.00 0.00 0.00 62 1015.5
20260503032447 4 172 4.8 6.4 0.00 0.00 0.00 62 1015.3
20260503031944 5 119 1.6 8.0 0.00 0.00 0.00 62 1015.4
20260503031442 5 134 1.6 9.7 0.00 0.00 0.00 62 1015.6
20260503030938 5 169 3.2 6.4 0.00 0.00 0.00 62 1015.5
20260503030435 5 168 3.2 6.4 0.00 0.00 0.00 62 1015.5
20260503025932 5 167 3.2 8.0 0.00 0.00 0.00 62 1015.6
20260503025428 5 168 3.2 8.0 0.00 0.00 0.00 62 1015.5
20260503024926 5 153 4.8 6.4 0.00 0.00 0.00 62 1015.6
20260503024422 5 168 3.2 6.4 0.00 0.00 0.00 62 1015.6
20260503023920 5 159 0.0 8.0 0.00 0.00 0.00 62 1015.7
20260503023417 5 170 0.0 6.4 0.00 0.00 0.00 61 1015.6
20260503022914 5 139 3.2 6.4 0.00 0.00 0.00 62 1015.8
20260503022408 5 156 0.0 8.0 0.00 0.00 0.00 60 1015.7
20260503021904 5 174 3.2 6.4 0.00 0.00 0.00 60 1015.6
20260503021401 5 146 4.8 6.4 0.00 0.00 0.00 60 1015.6
20260503020858 5 158 3.2 4.8 0.00 0.00 0.00 59 1015.7
20260503020356 5 139 3.2 6.4 0.00 0.00 0.00 60 1015.8
20260503015852 5 114 1.6 4.8 0.00 0.00 0.00 61 1015.7
20260503015349 5 105 0.0 6.4 0.00 0.00 0.00 60 1015.8
20260503014844 5 89 0.0 3.2 0.00 0.00 0.00 61 1015.5
20260503014343 5 108 1.6 4.8 0.00 0.00 0.00 61 1015.6
20260503013839 5 116 0.0 4.8 0.00 0.00 0.00 62 1015.5
20260503013331 5 104 3.2 4.8 0.00 0.00 0.00 63 1015.6
20260503012828 5 127 1.6 4.8 0.00 0.00 0.00 63 1015.5
20260503012326 5 120 3.2 4.8 0.00 0.00 0.00 61 1015.5
20260503011822 5 170 4.8 8.0 0.00 0.00 0.00 59 1015.6
20260503011319 5 124 3.2 3.2 0.00 0.00 0.00 60 1015.5
20260503010816 5 133 3.2 3.2 0.00 0.00 0.00 59 1015.5
20260503010313 5 145 3.2 4.8 0.00 0.00 0.00 58 1015.5
20260503005810 5 124 1.6 3.2 0.00 0.00 0.00 59 1015.5
20260503005308 5 120 1.6 4.8 0.00 0.00 0.00 58 1015.5
20260503004803 6 89 1.6 4.8 0.00 0.00 0.00 57 1015.3
20260503004301 6 102 1.6 3.2 0.00 0.00 0.00 56 1015.4
20260503003758 6 120 3.2 3.2 0.00 0.00 0.00 55 1015.5
20260503003255 6 131 3.2 4.8 0.00 0.00 0.00 53 1015.3
20260503002752 7 126 1.6 4.8 0.00 0.00 0.00 52 1015.3
20260503002249 7 140 3.2 4.8 0.00 0.00 0.00 51 1015.4
20260503001745 7 151 1.6 4.8 0.00 0.00 0.00 51 1015.3
20260503001241 7 142 3.2 4.8 0.00 0.00 0.00 51 1015.5
20260503000739 7 218 3.2 9.7 0.00 0.00 0.00 49 1015.5
20260503000236 7 343 3.2 9.7 0.00 0.00 0.00 49 1015.5
20260502235733 8 106 0.0 6.4 0.00 0.00 0.00 48 1015.3
20260502235231 8 158 3.2 9.7 0.00 0.00 0.00 48 1015.4
20260502234727 8 69 3.2 6.4 0.00 0.00 0.00 48 1015.4
20260502234225 8 114 3.2 12.9 0.00 0.00 0.00 46 1015.3
20260502233721 8 352 4.8 8.0 0.00 0.00 0.00 45 1015.5
20260502233218 8 316 4.8 12.9 0.00 0.00 0.00 47 1015.5
20260502232713 8 108 3.2 6.4 0.00 0.00 0.00 48 1015.6
20260502232211 8 13 0.0 4.8 0.00 0.00 0.00 48 1015.3
20260502231707 8 193 0.0 4.8 0.00 0.00 0.00 46 1015.6
20260502231205 8 40 3.2 4.8 0.00 0.00 0.00 45 1015.5
20260502230704 10 15 3.2 6.4 0.00 0.00 0.00 45 1015.6
20260502230202 9 89 0.0 4.8 0.00 0.00 0.00 46 1015.7
20260502225657 8 124 1.6 8.0 0.00 0.00 0.00 44 1015.4
20260502225154 8 50 3.2 8.0 0.00 0.00 0.00 46 1015.7
20260502224650 8 31 3.2 4.8 0.00 0.00 0.00 47 1015.5
20260502224147 8 342 1.6 9.7 0.00 0.00 0.00 47 1015.6
20260502223645 8 62 1.6 4.8 0.00 0.00 0.00 47 1015.8
20260502223143 8 68 3.2 6.4 0.00 0.00 0.00 46 1015.5
20260502222640 8 55 0.0 6.4 0.00 0.00 0.00 46 1015.6
20260502222136 8 343 1.6 11.3 0.00 0.00 0.00 47 1015.7
20260502221632 8 323 4.8 12.9 0.00 0.00 0.00 45 1015.7
20260502221124 8 346 3.2 6.4 0.00 0.00 0.00 46 1015.7
20260502220620 8 104 1.6 9.7 0.00 0.00 0.00 46 1015.8
20260502220116 8 59 6.4 8.0 0.00 0.00 0.00 45 1015.6
20260502215614 10 307 1.6 8.0 0.00 0.00 0.00 41 1015.6
20260502215111 10 165 3.2 11.3 0.00 0.00 0.00 43 1015.8
20260502214608 8 139 8.0 12.9 0.00 0.00 0.00 46 1015.9
20260502214105 8 318 6.4 11.3 0.00 0.00 0.00 48 1016.0
20260502213602 8 354 4.8 9.7 0.00 0.00 0.00 47 1015.9
20260502213059 8 306 3.2 8.0 0.00 0.00 0.00 46 1015.9
20260502212558 8 115 6.4 11.3 0.00 0.00 0.00 47 1015.8
20260502212055 8 18 3.2 4.8 0.00 0.00 0.00 46 1015.9
20260502211551 8 38 4.8 16.1 0.00 0.00 0.00 46 1016.1
20260502211048 8 38 4.8 8.0 0.00 0.00 0.00 47 1015.8
20260502210545 8 329 3.2 6.4 0.00 0.00 0.00 50 1016.1
20260502210042 8 354 3.2 8.0 0.00 0.00 0.00 47 1016.1
20260502205539 8 272 3.2 8.0 0.00 0.00 0.00 46 1015.9
20260502205036 8 289 3.2 12.9 0.00 0.00 0.00 47 1016.1
20260502204533 8 107 3.2 8.0 0.00 0.00 0.00 47 1016.1
20260502204031 8 208 1.6 9.7 0.00 0.00 0.00 47 1016.1
20260502203527 8 158 6.4 12.9 0.00 0.00 0.00 45 1016.1
20260502203024 8 342 4.8 6.4 0.00 0.00 0.00 48 1016.2
20260502202520 8 14 1.6 6.4 0.00 0.00 0.00 48 1016.3
20260502202019 8 277 3.2 14.5 0.00 0.00 0.00 46 1016.4
20260502201514 9 0 1.6 9.7 0.00 0.00 0.00 44 1016.4
20260502201011 10 345 6.4 12.9 0.00 0.00 0.00 47 1016.3
20260502200507 8 320 6.4 11.3 0.00 0.00 0.00 45 1016.4
20260502200005 8 33 4.8 9.7 0.00 0.00 0.00 44 1016.5
20260502195503 8 198 4.8 6.4 0.00 0.00 0.00 46 1016.5
20260502194958 7 5 4.8 8.0 0.00 0.00 0.00 49 1016.7
20260502194455 7 143 1.6 11.3 0.00 0.00 0.00 49 1016.6
20260502193951 7 42 4.8 8.0 0.00 0.00 0.00 48 1016.7
20260502193449 8 8 3.2 9.7 0.00 0.00 0.00 48 1016.7
20260502192944 8 126 3.2 11.3 0.00 0.00 0.00 47 1016.6
20260502192441 8 14 4.8 8.0 0.00 0.00 0.00 47 1016.7
20260502191938 8 323 3.2 6.4 0.00 0.00 0.00 50 1016.9
20260502191435 9 356 8.0 11.3 0.00 0.00 0.00 48 1016.8
20260502190933 8 326 6.4 11.3 0.00 0.00 0.00 48 1016.8
20260502190430 7 92 4.8 9.7 0.00 0.00 0.00 52 1017.0
20260502185926 8 56 0.0 8.0 0.00 0.00 0.00 48 1017.1
20260502185421 8 131 4.8 9.7 0.00 0.00 0.00 45 1017.3
20260502184919 9 157 3.2 8.0 0.00 0.00 0.00 48 1017.0
20260502184414 7 351 6.4 11.3 0.00 0.00 0.00 49 1017.3
20260502183911 7 180 4.8 9.7 0.00 0.00 0.00 54 1017.4
20260502183407 7 265 1.6 6.4 0.00 0.00 0.00 52 1017.4
20260502182903 8 324 3.2 9.7 0.00 0.00 0.00 49 1017.3
20260502182359 8 68 4.8 11.3 0.00 0.00 0.00 53 1017.4
20260502181855 7 157 4.8 14.5 0.00 0.00 0.00 51 1017.5
20260502181354 7 152 4.8 22.5 0.00 0.00 0.00 52 1017.5
20260502180851 7 271 3.2 8.0 0.00 0.00 0.00 50 1017.6
20260502180348 7 349 3.2 9.7 0.00 0.00 0.00 49 1017.7